Weather History for Drummond Island, MI

Change the Weather History Date:

Wednesday, February 20, 2013

  Actual Average (KCIU) Record (KCIU)
Temperature  
Mean Temperature 7 °F -  
Max Temperature 11 °F 31 °F 48 °F (1983)
Min Temperature 3 °F 10 °F -19 °F (1993)
Degree Days  
Heating Degree Days 58    
Moisture  
Dew Point 0 °F    
Average Humidity 72    
Maximum Humidity 78    
Minimum Humidity 64    
Precipitation  
Precipitation 0.00 in - - ()
Sea Level Pressure  
Sea Level Pressure 30.03 in    
Wind  
Wind Speed 10 mph (NW)    
Max Wind Speed 15 mph    
Max Gust Speed 24 mph    
Visibility 9 miles    
Events Snow    
Averages and records for this station are not official NWS values.
T = Trace of Precipitation, MM = Missing Value Source: NWS Daily Summary

Daily Weather History Graph

Daily Weather History Graph

Search for Another Location

Airport:

Trip Planner

Search our weather history database for the weather conditions in past years. The results will help you decide how hot, cold, wet, or windy it might be!

Date:

Astronomy

Feb. 20, 2013 Rise Set
Actual Time 7:29 AM EST 6:08 PM EST
Civil Twilight 6:58 AM EST 6:39 PM EST
Nautical Twilight 6:23 AM EST 7:14 PM EST
Astronomical Twilight 5:49 AM EST 7:48 PM EST
Moon 1:19 PM EST (2/20) 3:58 AM EST (2/20)
Length of Visible Light 11h 40m
Length of Day
10h 39m
Waxing Gibbous, 76% of the Moon is Illuminated
Feb 20
Waxing Gibbous
Feb 25
Full
Mar 4
Last Quarter
Mar 11
New
Mar 19
First Quarter

Hourly Weather History & Observations

Time (EST) Temp. Windchill Dew Point Humidity Pressure Visibility Wind Dir Wind Speed Gust Speed Precip Events Conditions
12:16 AM 9.3 °F -3.8 °F 3.2 °F 76% 29.73 in 7.0 mi NW 9.2 mph 19.6 mph N/A   Overcast
12:36 AM 9.1 °F -4.0 °F 3.2 °F 77% 29.75 in 10.0 mi NW 9.2 mph 19.6 mph N/A Snow Light Snow
12:56 AM 8.6 °F -6.3 °F 2.3 °F 76% 29.75 in 10.0 mi NNW 11.5 mph 19.6 mph N/A   Overcast
1:15 AM 8.4 °F -6.5 °F 1.9 °F 75% 29.76 in 10.0 mi NW 11.5 mph 18.4 mph N/A Snow Light Snow
1:36 AM 8.2 °F -6.8 °F 1.4 °F 74% 29.77 in 10.0 mi NW 11.5 mph 19.6 mph N/A Snow Light Snow
1:56 AM 8.1 °F -6.2 °F 1.6 °F 75% 29.78 in 7.0 mi NW 10.4 mph 18.4 mph N/A Snow Light Snow
2:16 AM 7.9 °F -5.5 °F 1.4 °F 75% 29.80 in 7.0 mi NW 9.2 mph 18.4 mph N/A Snow Light Snow
2:36 AM 7.7 °F -6.6 °F 1.4 °F 75% 29.80 in 10.0 mi NW 10.4 mph 17.3 mph N/A Snow Light Snow
2:56 AM 7.5 °F -7.7 °F 0.9 °F 74% 29.81 in 10.0 mi NNW 11.5 mph 20.7 mph N/A   Overcast
3:16 AM 7.7 °F -5.8 °F 1.0 °F 74% 29.82 in 10.0 mi NNW 9.2 mph 17.3 mph N/A Snow Light Snow
3:36 AM 7.5 °F -9.1 °F 0.5 °F 73% 29.83 in 7.0 mi NW 13.8 mph 19.6 mph N/A Snow Light Snow
3:56 AM 7.5 °F -7.7 °F 0.9 °F 74% 29.84 in 7.0 mi NNW 11.5 mph 23.0 mph N/A Snow Light Snow
4:16 AM 7.3 °F -6.2 °F 0.9 °F 75% 29.85 in 7.0 mi NNW 9.2 mph 19.6 mph N/A Snow Light Snow
4:36 AM 7.2 °F -8.9 °F 0.5 °F 74% 29.86 in 7.0 mi NW 12.7 mph 21.9 mph N/A Snow Light Snow
4:56 AM 7.2 °F -8.1 °F 0.3 °F 74% 29.87 in 7.0 mi NNW 11.5 mph 19.6 mph N/A Snow Light Snow
5:16 AM 7.0 °F -7.5 °F 0.1 °F 74% 29.88 in 7.0 mi NNW 10.4 mph 18.4 mph N/A Snow Light Snow
5:36 AM 6.8 °F -10.7 °F -0.4 °F 72% 29.89 in 7.0 mi NW 15.0 mph 21.9 mph N/A Snow Light Snow
5:55 AM 6.6 °F -8.0 °F 0.1 °F 75% 29.91 in 10.0 mi NNW 10.4 mph 18.4 mph N/A Snow Light Snow
6:16 AM 6.4 °F -9.0 °F -0.4 °F 74% 29.92 in 7.0 mi NNW 11.5 mph 18.4 mph N/A Snow Light Snow
6:36 AM 6.4 °F -9.8 °F -0.4 °F 74% 29.93 in 10.0 mi NNW 12.7 mph 20.7 mph N/A Snow Light Snow
6:56 AM 5.9 °F -8.9 °F -0.9 °F 73% 29.94 in 7.0 mi NNW 10.4 mph 17.3 mph N/A Snow Light Snow
7:16 AM 5.9 °F -8.0 °F -0.4 °F 75% 29.95 in 4.0 mi NW 9.2 mph - N/A Snow Light Snow
7:56 AM 5.0 °F -9.1 °F -1.5 °F 75% 29.98 in 10.0 mi NW 9.2 mph 18.4 mph N/A   Overcast
8:16 AM 4.8 °F -9.3 °F -1.7 °F 75% 29.99 in 10.0 mi NW 9.2 mph 17.3 mph N/A   Overcast
8:36 AM 4.6 °F -8.5 °F -2.2 °F 73% 30.00 in 10.0 mi NW 8.1 mph - N/A   Overcast
8:56 AM 4.8 °F -11.1 °F -2.7 °F 71% 30.00 in 10.0 mi NW 11.5 mph 19.6 mph N/A   Overcast
9:16 AM 4.5 °F -10.7 °F -3.6 °F 69% 30.02 in 10.0 mi NNW 10.4 mph 18.4 mph N/A   Overcast
9:36 AM 4.3 °F -11.7 °F -4.0 °F 69% 30.03 in 10.0 mi NW 11.5 mph 17.3 mph N/A   Overcast
9:56 AM 4.5 °F -4.7 °F -3.3 °F 70% 30.03 in 10.0 mi NNW 4.6 mph - N/A   Overcast
10:15 AM 4.6 °F -9.5 °F -4.0 °F 67% 30.03 in 10.0 mi NNW 9.2 mph 17.3 mph N/A   Scattered Clouds
10:36 AM 5.5 °F -7.4 °F -3.5 °F 66% 30.04 in 10.0 mi NNW 8.1 mph - N/A   Scattered Clouds
10:55 AM 5.5 °F -9.3 °F -3.5 °F 66% 30.04 in 10.0 mi NW 10.4 mph 19.6 mph N/A   Scattered Clouds
11:16 AM 5.7 °F -10.7 °F -3.6 °F 65% 30.05 in 10.0 mi NW 12.7 mph 19.6 mph N/A   Clear
11:35 AM 6.6 °F -7.1 °F -2.9 °F 65% 30.06 in 10.0 mi NW 9.2 mph 17.3 mph N/A   Clear
11:56 AM 6.8 °F -6.9 °F -2.6 °F 66% 30.06 in 10.0 mi NW 9.2 mph 18.4 mph N/A   Clear
12:16 PM 7.2 °F -8.9 °F -2.4 °F 65% 30.06 in 10.0 mi NNW 12.7 mph 17.3 mph N/A   Clear
12:36 PM 7.3 °F -6.2 °F -2.0 °F 66% 30.06 in 10.0 mi NNW 9.2 mph 19.6 mph N/A   Clear
12:56 PM 8.4 °F -4.9 °F -1.5 °F 64% 30.06 in 10.0 mi NNW 9.2 mph 17.3 mph N/A   Clear
1:16 PM 9.3 °F -5.4 °F -0.4 °F 65% 30.06 in 10.0 mi WNW 11.5 mph 16.1 mph N/A   Clear
1:36 PM 9.3 °F -1.7 °F -0.4 °F 65% 30.06 in 10.0 mi NW 6.9 mph - N/A   Clear
1:56 PM 9.7 °F -2.4 °F -0.2 °F 64% 30.07 in 10.0 mi NW 8.1 mph - N/A   Scattered Clouds
2:16 PM 10.0 °F -3.7 °F -0.0 °F 64% 30.07 in 10.0 mi NNW 10.4 mph 16.1 mph N/A   Scattered Clouds
2:36 PM 10.2 °F -0.6 °F 0.5 °F 65% 30.07 in 10.0 mi NW 6.9 mph - N/A   Scattered Clouds
3:36 PM 11.1 °F 0.4 °F 1.4 °F 65% 30.09 in 10.0 mi NW 6.9 mph - N/A   Clear
3:55 PM 11.1 °F -0.6 °F 1.9 °F 67% 30.10 in 10.0 mi NW 8.1 mph - N/A   Scattered Clouds
4:16 PM 11.1 °F -1.6 °F 3.6 °F 72% 30.10 in 10.0 mi WNW 9.2 mph 17.3 mph N/A   Mostly Cloudy
4:35 PM 10.9 °F -2.6 °F 3.7 °F 73% 30.11 in 10.0 mi WNW 10.4 mph 17.3 mph N/A   Mostly Cloudy
4:56 PM 10.4 °F -1.5 °F 3.6 °F 74% 30.12 in 10.0 mi WNW 8.1 mph 19.6 mph N/A   Mostly Cloudy
5:16 PM 10.2 °F -0.6 °F 4.1 °F 76% 30.13 in 7.0 mi WNW 6.9 mph 17.3 mph N/A   Overcast
5:36 PM 10.4 °F -3.3 °F 4.1 °F 76% 30.13 in 10.0 mi WNW 10.4 mph 16.1 mph N/A   Mostly Cloudy
5:56 PM 10.2 °F -1.7 °F 4.1 °F 76% 30.14 in 10.0 mi NW 8.1 mph 16.1 mph N/A   Mostly Cloudy
6:16 PM 10.0 °F -0.9 °F 3.6 °F 75% 30.15 in 10.0 mi NW 6.9 mph - N/A   Scattered Clouds
6:36 PM 10.4 °F -2.4 °F 3.7 °F 74% 30.16 in 10.0 mi NW 9.2 mph - N/A   Overcast
6:56 PM 10.2 °F -1.7 °F 3.7 °F 75% 30.17 in 10.0 mi NW 8.1 mph - N/A   Overcast
7:16 PM 10.0 °F -0.9 °F 3.9 °F 76% 30.18 in 10.0 mi NW 6.9 mph - N/A   Mostly Cloudy
7:36 PM 9.9 °F -2.2 °F 4.1 °F 78% 30.18 in 10.0 mi NNW 8.1 mph - N/A   Mostly Cloudy
7:56 PM 9.3 °F -1.7 °F 3.7 °F 78% 30.20 in 10.0 mi NNW 6.9 mph - N/A   Mostly Cloudy
8:16 PM 8.6 °F -2.6 °F 1.4 °F 73% 30.20 in 10.0 mi NNW 6.9 mph 18.4 mph N/A   Scattered Clouds
8:36 PM 8.1 °F -6.2 °F 0.9 °F 72% 30.21 in 10.0 mi NNW 10.4 mph 17.3 mph N/A   Clear
8:56 PM 7.3 °F -7.9 °F 0.3 °F 73% 30.21 in 10.0 mi North 11.5 mph 18.4 mph N/A   Clear
9:16 PM 6.6 °F -9.5 °F -0.4 °F 73% 30.22 in 10.0 mi North 12.7 mph 17.3 mph N/A   Clear
9:36 PM 6.1 °F -8.7 °F -1.3 °F 72% 30.23 in 10.0 mi North 10.4 mph 24.2 mph N/A   Clear
9:56 PM 5.4 °F -11.8 °F -1.7 °F 73% 30.23 in 10.0 mi North 13.8 mph 23.0 mph N/A   Clear
10:16 PM 4.8 °F -10.2 °F -2.2 °F 73% 30.24 in 10.0 mi North 10.4 mph 18.4 mph N/A   Clear
10:36 PM 4.1 °F -12.0 °F -2.7 °F 73% 30.25 in 10.0 mi North 11.5 mph 17.3 mph N/A   Clear
10:56 PM 3.7 °F -13.2 °F -3.3 °F 73% 30.25 in 10.0 mi North 12.7 mph 19.6 mph N/A   Scattered Clouds
11:16 PM 3.2 °F -12.2 °F -4.0 °F 72% 30.26 in 10.0 mi NNW 10.4 mph 16.1 mph N/A   Clear
11:36 PM 3.0 °F -10.5 °F -3.8 °F 73% 30.26 in 10.0 mi North 8.1 mph 16.1 mph N/A   Scattered Clouds
11:56 PM 3.0 °F -10.5 °F -4.0 °F 73% 30.26 in 10.0 mi North 8.1 mph - N/A   Scattered Clouds